User: anonymous   Login
Location: Bonnesvalyn
(49.1218°N, 3.3177°E)
Time: 18:15:54
(UTC+00:00)
Language:

Cosmos 2219 Rocket - Orbit

View from above orbital plane
View from above orbital plane
View from above satellite
View from above satellite

Ground track
Ground track

The orbit data is extracted from the following two-line orbital elements,

1 22220U 92076B   24150.91818992 -.00000129  00000-0 -40737-4 0  9990
2 22220  70.9990 114.8156 0012970 353.4433  70.3624 14.16660744629945
Epoch (UTC): 29 May 2024 22:02:11
Eccentricity: 0.0012970
inclination: 70.9990°
perigee height: 827 km
apogee height: 846 km
right ascension of ascending node: 114.8156°
argument of perigee: 353.4433°
revolutions per day: 14.16660744
mean anomaly at epoch: 70.3624°
orbit number at epoch: 62994

The dashed part of the orbit path shows where the satellite is in the earth's shadow,  

DLR